STARLINK-32113, 60282

Orbit data source: Space-Track

STARLINK-32113, 60282 is a payload satellite owned by SpaceX/Seattle (US) in LEO that was launched on Sun, 28 Jul 2024 UTC via an FALCON 9 launch vehicle from the Air Force Eastern Test Range (AFETR). Payload-class satellites include a variety of spacecraft equipped with specific instruments for various scientific and technological missions. These include communications satellites like Starlink; space stations such as the ISS; scientific satellites like the Hubble; Earth observation satellites from companies like Planet Labs, Umbra, and HawkEye 360; GPS; miniature CubeSats for education and research; and military/defense satellites.

Loading next visibility...
Identifier
60282, 2024-132E
Orbit
LEO
Country
Flag of USUS
Related business
Manufacturer
SpaceX/Seattle
Mission
Operational spacecraft
Bus & Motor
STARLINK V2M, Unknown motor
Mass
730 kg wet, ~700 kg dry
Launch date (UTC)
2024-07-28 (1 year ago)
Launch vehicle
FALCON 9
Launch site
Air Force Eastern Test Range (AFETR)
Object type
Payload
Rocket body
Debris
Shape & HBR
Unknown
Radar Cross Section
Large (>1 m²)

Expand to show TLE details & history
Last TLE update: 16 hours ago

TLE from 16 hours ago
0 STARLINK-32113
1 60282U 24132E   25258.06820837 -.00000812  00000-0 -15300-4 0  9992
2 60282  53.1598 148.0565 0000830  96.0694 264.0401 15.30194267 64673
Epoch: 2025-09-15T01:38Z
TLE epoch observation values (Epoch: 2025-09-15T01:38:13.203Z)
Latitude
-0.00003°
Longitude
129.22329°
Altitude
476.191 km
Speed
7.629 km/s
True Right ascension
09h 52m 13s
True Declination
0° 00' 00"
Sunlit
Object was in daylight at epoch
Visualization orbit readout
Latitude
Unknown
Longitude
Unknown
Altitude
Unknown
Speed
Unknown
Apparent Right ascension
Unknown
Apparent Declination
Unknown
Sunlit
N/A
Visualization observer readout
Local Sidereal Time
09:53:54
Azimuth
Unknown
Elevation
Unknown
Doppler factor
Unknown
Orbital elements
Apogee altitude
476.058 km
Perigee altitude
474.92 km
Semi-major axis
6,853.626 km
Eccentricity
0.00008
Inclination
53.1598°
RAAN
148.0565°
Arg. of periapsis
96.0694°
True anomaly
264.03064°
Mean anomaly
264.0401°
Eccentric anomaly
264.03537°
Mean motion
3.82527 °/min
Orbital period
94.11 mins
BSTAR
-0.0000153
Loading maneuver chart data...
Computing Atmospheric mass density...
Loading historical data...
Loading historical data...
Loading historical data...
Loading historical data...
Loading historical data...
Loading historical data...
Loading historical data...

Documentation

Showing up to 5 results
|